FW5236 Weather Reports


time (UTC)temp
F
wind
direction
speed
knots
gust
knots
rain 1hr
in
rain 24hr
in
rain mn
in
humidity
%
barometer
mb
20260906171607 56 19 0.0 0.9 0.00 0.23 0.23 96 1019.5
20260906170031 55 62 0.0 0.9 0.00 0.23 0.23 96 1019.5
20260906164530 54 67 0.0 0.9 0.01 0.23 0.23 96 1019.6
20260906163032 54 42 0.0 0.9 0.01 0.23 0.23 96 1019.5
20260906160030 53 18 0.0 0.9 0.08 0.23 0.22 96 1019.3
20260906154532 53 26 0.0 1.7 0.07 0.22 0.22 96 1019.3
20260906153146 52 225 0.0 0.0 0.07 0.22 0.15 95 1018.9
20260906151534 0 0 0.0 0.0 0.09 0.15 0.00 100
20260906150030 0 0 0.0 0.0 0.09 0.15 0.00 100
20260906144531 0 0 0.0 0.0 0.09 0.15 0.00 100
20260906143030 52 225 0.0 0.0 0.09 0.15 0.06 95 1018.7
20260906141529 0 0 0.0 0.0 0.01 0.06 0.00 100
20260906140031 0 0 0.0 0.0 0.02 0.06 0.00 100
20260906134531 52 225 0.0 0.0 0.05 0.06 0.06 94 1018.2
20260906131530 53 225 0.0 0.0 0.04 0.05 0.04 94 1018.0
20260906130108 53 225 0.0 0.0 0.03 0.04 0.01 93 1018.1
20260906124531 53 225 0.0 0.0 0.00 0.01 0.01 93 1018.2
20260906123030 0 0 0.0 0.0 0.00 0.01 0.00 100
20260906121607 0 0 0.0 0.0 0.00 0.01 0.00 100
20260906120105 0 0 0.0 0.0 0.00 0.01 0.00 100
20260906114606 0 0 0.0 0.0 0.00 0.01 0.00 100
20260906113031 0 0 0.0 0.0 0.00 0.01 0.00 100
20260906111646 0 0 0.0 0.0 0.00 0.01 0.00 100
20260906110028 0 0 0.0 0.0 0.00 0.01 0.00 100
20260906104530 0 0 0.0 0.0 0.00 0.01 0.00 100
20260906103030 0 0 0.0 0.0 0.01 0.01 0.00 100
20260906100028 0 0 0.0 0.0 0.01 0.01 0.00 100
20260906094531 54 310 2.6 3.5 0.01 0.01 0.00 88 1018.5
20260906093030 54 333 0.9 2.6 0.00 0.00 0.00 86 1018.6
20260906091530 55 275 0.9 1.7 0.00 0.00 0.00 84 1018.8
20260906090031 54 291 1.7 3.5 0.00 0.00 0.00 84 1018.7
20260906084529 54 298 0.9 3.5 0.00 0.00 0.00 82 1018.6
20260906083033 0 0 0.0 0.0 0.00 0.00 0.00 100
20260906081535 0 0 0.0 0.0 0.00 0.00 0.00 100
20260906080032 0 0 0.0 0.0 0.00 0.00 0.00 100
20260906073031 0 0 0.0 0.0 0.00 0.00 0.00 100
20260906071530 0 0 0.0 0.0 0.00 0.00 0.00 100
20260906070034 0 0 0.0 0.0 0.00 0.00 0.00 100
20260906064531 0 0 0.0 0.0 0.00 0.00 0.00 100
20260906063029 0 0 0.0 0.0 0.00 0.00 0.00 100
20260906061530 0 0 0.0 0.0 0.00 0.00 0.00 100
20260906060030 54 225 1.7 2.6 0.00 0.00 0.00 73 1019.1
20260906054531 55 225 1.7 1.7 0.00 0.00 0.00 74 1019.3
20260906053032 0 0 0.0 0.0 0.00 0.00 0.00 100
20260906050030 0 0 0.0 0.0 0.00 0.00 0.00 100
20260906044606 0 0 0.0 0.0 0.00 0.00 0.00 100
20260906043030 0 0 0.0 0.0 0.00 0.00 0.00 100
20260906041603 0 0 0.0 0.0 0.00 0.00 0.00 100
20260906040029 0 0 0.0 0.0 0.00 0.00 0.00 100
20260906034531 0 0 0.0 0.0 0.00 0.00 0.00 100
20260906033029 0 0 0.0 0.0 0.00 0.00 0.00 100
20260906030029 0 0 0.0 0.0 0.00 0.00 0.00 100
20260906024532 0 0 0.0 0.0 0.00 0.00 0.00 100
20260906023029 63 15 0.0 1.7 0.00 0.00 0.00 58 1018.3
20260906021529 65 39 0.9 2.6 0.00 0.00 0.00 56 1018.2
20260906020029 66 36 0.0 1.7 0.00 0.00 0.00 55 1018.2
20260906013030 69 41 0.9 3.5 0.00 0.00 0.00 51 1018.5
20260906011532 70 39 0.9 4.3 0.00 0.00 0.00 49 1018.5
20260906010030 71 32 1.7 6.1 0.00 0.00 0.00 45 1018.4
20260906004603 76 36 2.6 7.8 0.00 0.00 0.00 37 1018.0
20260906003031 80 43 0.9 3.5 0.00 0.00 0.00 33 1018.0
20260906001529 80 74 0.0 2.6 0.00 0.00 0.00 33 1017.9
20260906000108 80 64 0.0 1.7 0.00 0.00 0.00 34 1017.8
20260905234647 79 88 0.0 0.9 0.00 0.00 0.00 34 1017.8
20260905233028 79 96 0.9 1.7 0.00 0.00 0.00 34 1018.0
20260905231528 77 116 0.9 5.2 0.00 0.00 0.00 37 1018.2
20260905230032 75 163 0.0 1.7 0.00 0.00 0.00 37 1018.2
20260905221532 75 149 0.0 2.6 0.00 0.00 0.00 39 1018.6
20260905220032 74 144 0.0 2.6 0.00 0.00 0.00 42 1018.8
20260905214532 72 134 0.0 1.7 0.00 0.00 0.00 45 1019.0
20260905213037 72 141 0.0 1.7 0.00 0.00 0.00 44 1019.2
20260905211532 72 153 0.0 2.6 0.00 0.00 0.00 46 1019.3
20260905210028 72 140 0.0 2.6 0.00 0.00 0.00 46 1019.3
20260905204532 71 157 0.0 1.7 0.00 0.00 0.00 46 1019.3
20260905203031 73 149 0.9 3.5 0.00 0.00 0.00 45 1019.3
20260905201531 72 175 0.0 2.6 0.00 0.00 0.00 47 1019.4
20260905200028 72 185 0.0 2.6 0.00 0.00 0.00 48 1019.6
20260905194604 72 140 0.9 4.3 0.00 0.00 0.00 50 1019.8
20260905193031 68 85 0.0 0.9 0.00 0.00 0.00 55 1020.0
20260905191533 65 67 0.0 0.9 0.00 0.00 0.00 60 1020.3
20260905184606 63 50 0.0 0.0 0.00 0.00 0.00 64 1020.7
20260905183034 0 0 0.0 0.0 0.00 0.00 0.00 100
20260905181531 0 0 0.0 0.0 0.00 0.00 0.00 100
20260905180031 0 0 0.0 0.0 0.00 0.00 0.00 100
20260905174603 0 0 0.0 0.0 0.00 0.00 0.00 100